Content
SEND FEEDBACK

Daily
Averages
Monthly
Summary
Canada

QUEBEC CITY, QUEBEC


Home > North America > Canada > Quebec
Elevation: 239 feet     Latitude: 46 48N     Longitude: 071 23W

WEATHER
 
SELECT A DAY
Number of Records: 198,300;   Date Range: 6/30/96 - 12/24/14
 
SHARE

PRINT THIS DATA

[ ← Previous Day ]
WEATHER ALMANAC - AUGUST 7, 2014
[ Next Day → ]
[ °C ]   °F
Weather ElementAverageHighLow
Temperature64.3 °F75.2 °F (4:00 pm)60 °F (11:00 pm)
Dewpoint57 °F62.6 °F (2:00 pm)53.6 °F (3:00 am)
Humidity76.2 %88 % (9:45 am)53 % (4:00 pm)
Barometer29.87 in29.94 in (9:00 pm)29.81 in (2:00 am)
Wind Speed5.1 mph15 mph (4:26 pm)
Wind Gust23 mph (4:26 pm)
Weather ElementAverage
Visibility18.7 mi
Wind DirectionSW (227 °)

Weather ElementTotal
Precipitation---
Cooling Degree Days2.6 (Base 65)
Growing Degree Days17.6 (Base 50)
Averaged from 40 records on August 7, 2014
WEATHER CONDITIONS BREAKOUT
WIND DIRECTION BREAKOUT
WEATHER BY HOUR - AUGUST 7, 2014
[ °C ]   °F
Local TimeTemperatureDewpointHumidityBarometerVisibilityWind DirectionWind SpeedGust SpeedPrecipitationEventsConditions
1:00 AM62.6 °F57.2 °F82 %29.83 in15.0 miWest (260°)3.5 mphMostly Cloudy
2:00 AM62.0 °F57.0 °F77 %29.81 inWNW (290°)4.6 mph
2:00 AM62.6 °F55.4 °F77 %29.82 in15.0 miWest (280°)5.8 mphMostly Cloudy
3:00 AM62.6 °F53.6 °F72 %29.82 in15.0 miNW (320°)5.8 mphMostly Cloudy
4:00 AM62.6 °F53.6 °F72 %29.81 in15.0 miNorth (360°)3.5 mphMostly Cloudy
5:00 AM62.6 °F53.6 °F72 %29.82 in15.0 miCalmOvercast
5:00 AM62.0 °F54.0 °F68 %29.81 inNNE (30°)1.2 mph
6:00 AM62.6 °F53.6 °F72 %29.83 in20.0 miNNW (340°)4.6 mphOvercast
7:00 AM62.6 °F53.6 °F72 %29.84 in20.0 miNNW (330°)5.8 mphOvercast
8:00 AM62.6 °F55.4 °F77 %29.85 in20.0 miNNW (340°)4.6 mphOvercast
8:00 AM63.0 °F55.0 °F67 %29.83 inNorth (350°)3.5 mph
8:06 AM62.6 °F55.4 °F77 %29.85 in15.0 miNNW (340°)4.6 mphRainLight Rain Showers
9:00 AM62.6 °F57.2 °F82 %29.86 in15.0 miNW (320°)5.8 mphRainLight Rain Showers
9:31 AM62.6 °F57.2 °F82 %29.87 in20.0 miNNW (330°)3.5 mphOvercast
9:45 AM62.6 °F59.0 °F88 %29.87 in15.0 miNW (320°)4.6 mphRainLight Rain Showers
10:00 AM62.6 °F59.0 °F88 %29.87 in15.0 miNNW (330°)3.5 mphRainLight Rain Showers
11:00 AM62.0 °F59.0 °F87 %29.88 inNW (310°)2.3 mph
11:00 AM62.6 °F59.0 °F88 %29.89 in12.0 miWNW (290°)3.5 mphRainLight Rain Showers
12:00 PM62.6 °F59.0 °F88 %29.90 in20.0 miWSW (250°)5.8 mphRainLight Rain Showers
1:00 PM64.4 °F60.8 °F88 %29.89 in20.0 miWest (260°)3.5 mphRainLight Rain Showers
1:42 PM66.2 °F60.8 °F83 %29.88 in20.0 miSW (230°)4.6 mphMostly Cloudy
2:00 PM67.0 °F62.0 °F77 %29.87 inSW (230°)4.6 mph
2:00 PM68.0 °F62.6 °F83 %29.88 in20.0 miSSW (200°)5.8 mphMostly Cloudy
3:00 PM71.6 °F60.8 °F69 %29.86 in20.0 miWest (280°)5.8 mphMostly Cloudy
4:00 PM75.2 °F57.2 °F53 %29.87 in20.0 miNorth (10°)11.5 mphThunderstormThunderstorm
4:26 PM71.6 °F55.4 °F57 %29.88 in25.0 miNNE (20°)15.0 mph23.0 mphRain-ThunderstormLight Thunderstorms and Rain
4:55 PM68.0 °F59.0 °F73 %29.88 in25.0 miNorth (350°)9.2 mphRainLight Rain Showers
5:00 PM67.0 °F58.0 °F66 %29.87 inNNW (340°)6.9 mph
5:00 PM66.2 °F59.0 °F78 %29.88 in25.0 miNorth (350°)12.7 mphRainLight Rain Showers
5:27 PM66.2 °F59.0 °F78 %29.88 in30.0 miNNW (340°)5.8 mphMostly Cloudy
6:00 PM66.2 °F57.2 °F73 %29.90 in20.0 miNorth (10°)8.1 mphMostly Cloudy
7:00 PM64.4 °F55.4 °F73 %29.90 in20.0 miNorth (360°)5.8 mphMostly Cloudy
7:32 PM64.4 °F55.4 °F73 %29.91 in20.0 miNNE (20°)5.8 mphRainLight Rain Showers
7:50 PM64.4 °F55.4 °F73 %29.92 in20.0 miNE (50°)3.5 mphMostly Cloudy
8:00 PM63.0 °F56.0 °F71 %29.91 inNorth (10°)2.3 mph
8:00 PM64.4 °F55.4 °F73 %29.92 in20.0 miNNE (30°)5.8 mphMostly Cloudy
9:00 PM62.6 °F55.4 °F77 %29.94 in15.0 miVariable2.3 mphMostly Cloudy
10:00 PM62.6 °F55.4 °F77 %29.94 in15.0 miNW (320°)4.6 mphMostly Cloudy
11:00 PM60.0 °F56.0 °F81 %29.93 inWest (280°)1.2 mph
11:00 PM60.8 °F55.4 °F82 %29.94 in15.0 miVariable2.3 mphScattered Clouds
Hourly data recorded from CYQB, located miles away from Quebec City, Quebec







STORIES FROM OUR PARTNERS